User: anonymous   Login
Location: Azul
(36.7830°S, 59.8500°W)
Time: 10:05:08
(UTC-03:00)
Language:

XW-2A - Orbit

View from above orbital plane
View from above orbital plane
View from above satellite
View from above satellite

Ground track
Ground track

The orbit data is extracted from the following two-line orbital elements,

1 40903U 15049E   21295.11426640  .00006657  00000-0  13567-3 0  9997
2 40903  97.2210 349.1921 0010213 273.6401 170.1690 15.46514523342366
Epoch (UTC): 22 October 2021 02:44:32
Eccentricity: 0.0010213
inclination: 97.2210°
perigee height: 420 km
apogee height: 434 km
right ascension of ascending node: 349.1921°
argument of perigee: 273.6401°
revolutions per day: 15.46514523
mean anomaly at epoch: 170.1690°
orbit number at epoch: 34236

The dashed part of the orbit path shows where the satellite is in the earth's shadow,  

DLR